[[{"header":{"parameterUnit":"m.s-1","parameterCategory":1,"la1":30.2992,"la2":30.254,"lo1":-89.0895,"lo2":-89.0443,"dy":0.0025,"dx":0.0025,"nx":19,"ny":19,"refTime":"2026-04-15T21:00:00:Z","depth":0,"parameterNumber":2,"parameterNumberName":"U-component_of_WINDS"},"data":[0,0,0,-2.9694,-2.9695,-2.9729,-2.9729,-2.9775,-2.9775,0,0,0,0,0,0,0,0,0,0,0,-2.9683,-2.9683,-2.9694,-2.9695,-2.9729,-2.973,-2.9775,-2.9775,0,0,0,0,0,0,0,0,0,0,0,-2.9683,-2.9683,-2.9684,-2.9695,-2.9729,-2.973,-2.9775,-2.9748,0,0,0,0,0,0,0,0,0,0,-2.9715,-2.9704,-2.9683,-2.9684,-2.9695,-2.9729,-2.973,-2.9747,-2.975,-2.9759,0,-2.9766,0,-2.9771,-2.9778,-2.9778,0,0,0,-2.9695,-2.9701,-2.9711,-2.9684,-2.9695,-2.9729,-2.9714,-2.9749,-2.9752,-2.9763,-2.9767,-2.9768,-2.9772,-2.9779,-2.9779,-2.9827,-2.9828,0,0,-2.9694,-2.9689,-2.9709,-2.9713,-2.9707,-2.9713,-2.9715,-2.9751,-2.9755,-2.9767,-2.977,-2.9773,-2.9779,-2.9779,-2.9827,-2.9828,0,0,0,-2.9688,-2.9688,-2.9697,-2.9711,-2.9717,-2.9714,-2.9716,-2.9753,-2.9757,-2.977,-2.9773,-2.9779,-2.978,-2.9827,-2.9827,-2.9832,0,0,0,-2.9687,-2.9684,-2.9696,-2.9693,-2.9717,-2.9735,-2.9718,-2.9754,-2.9758,-2.9773,-2.9779,-2.978,-2.9827,-2.9827,-2.9831,-2.9834,0,0,0,-2.9681,-2.9684,-2.9688,-2.9693,-2.9708,-2.9735,-2.974,-2.9755,-2.976,-2.9778,-2.978,-2.9827,-2.9827,-2.983,-2.9833,-2.9845,0,0,0,-2.9674,-2.9692,-2.9688,-2.971,-2.9707,-2.9738,-2.974,-2.9763,-2.9779,-2.9779,-2.9827,-2.9827,-2.983,-2.9833,-2.9844,-2.9853,-2.9857,0,0,-2.9694,-2.9694,-2.9707,-2.9705,-2.9734,-2.9733,-2.9763,-2.9783,-2.9789,-2.9815,-2.9816,-2.9831,-2.9833,-2.9845,-2.988,-2.9883,0,0,0,-2.9711,-2.9721,-2.9729,-2.9744,-2.976,-2.9773,-2.9789,-2.9797,-2.9818,-2.9801,-2.984,-2.9841,-2.9848,-2.9852,-2.9855,-2.9861,-2.983,-2.9829,-2.9829,-2.9731,-2.9739,-2.9761,-2.9773,-2.9788,-2.9805,-2.9818,-2.9831,-2.9834,-2.9844,-2.985,-2.9871,-2.9876,-2.9878,-2.9884,-2.9857,-2.9857,-2.9857,-2.9857,-2.976,-2.9774,-2.9779,-2.9802,-2.9811,-2.9831,-2.9849,-2.9851,-2.9872,-2.9866,-2.9873,-2.9864,-2.988,-2.9887,-2.9858,-2.9858,-2.9857,-2.9857,-2.9857,-2.9772,-2.978,-2.979,-2.9813,-2.9831,-2.9844,-2.9864,-2.9871,-2.9879,-2.9886,-2.9894,-2.9894,-2.9894,-2.989,-2.989,-2.989,-2.989,-2.989,-2.989,-2.9781,-2.9792,-2.9807,-2.9826,-2.9837,-2.9854,-2.9872,-2.9884,-2.99,-2.9904,-2.9904,-2.9906,-2.9881,-2.9874,-2.9891,-2.9891,-2.9891,-2.9891,-2.989,-2.9805,-2.9801,-2.9824,-2.9836,-2.986,-2.9877,-2.9888,-2.9912,-2.9923,-2.9933,-2.9936,-2.9916,-2.9916,-2.9915,-2.9908,-2.9934,-2.9934,-2.9934,-2.9934,-2.9815,-2.9817,-2.9842,-2.986,-2.9879,-2.9891,-2.9919,-2.9935,-2.9951,-2.9959,-2.9957,-2.995,-2.9948,-2.995,-2.9948,-2.9942,-2.9975,-2.9975,-2.9975,-2.983,-2.9834,-2.9855,-2.9869,-2.989,-2.9907,-2.9933,-2.9955,-2.9973,-2.9977,-2.9965,-2.9963,-2.9953,-2.9949,-2.995,-2.9946,-2.9936,0,0]},{"header":{"parameterUnit":"m.s-1","parameterCategory":1,"la1":30.2992,"la2":30.254,"lo1":-89.0895,"lo2":-89.0443,"dy":0.0025,"dx":0.0025,"nx":19,"ny":19,"refTime":"2026-04-15T21:00:00:Z","depth":0,"parameterNumber":3,"parameterNumberName":"V-component_of_WINDS"},"data":[0,0,0,4.944,4.9439,4.9388,4.9387,4.9316,4.9315,0,0,0,0,0,0,0,0,0,0,0,4.9454,4.9453,4.944,4.9439,4.9388,4.9387,4.9316,4.9315,0,0,0,0,0,0,0,0,0,0,0,4.9454,4.9453,4.9453,4.9438,4.9388,4.9387,4.9316,4.9356,0,0,0,0,0,0,0,0,0,0,4.9407,4.9418,4.9453,4.9453,4.9438,4.9388,4.9387,4.9358,4.9354,4.9337,0,4.9324,0,4.9319,4.931,4.931,0,0,0,4.9439,4.9422,4.941,4.9452,4.9438,4.9388,4.9411,4.9356,4.935,4.9331,4.9323,4.9321,4.9318,4.931,4.9309,4.9221,4.9221,0,0,4.9441,4.9443,4.9414,4.9407,4.9417,4.9412,4.9409,4.9353,4.9343,4.9323,4.9319,4.9316,4.9309,4.9308,4.9221,4.9221,0,0,0,4.945,4.9444,4.9434,4.941,4.9401,4.9411,4.9407,4.9345,4.9342,4.9318,4.9316,4.9309,4.9308,4.9222,4.9221,4.9203,0,0,0,4.9451,4.9449,4.9435,4.9435,4.9402,4.9373,4.9401,4.9346,4.934,4.9316,4.9309,4.9307,4.9222,4.9221,4.9204,4.9193,0,0,0,4.9457,4.945,4.9443,4.9436,4.9414,4.9374,4.9368,4.9345,4.9338,4.931,4.9307,4.9223,4.9222,4.9206,4.9195,4.9171,0,0,0,4.9463,4.9424,4.9442,4.9398,4.9415,4.9365,4.9368,4.933,4.9303,4.9308,4.9222,4.9221,4.9206,4.9197,4.9172,4.915,4.9142,0,0,4.9415,4.9419,4.9393,4.9407,4.9355,4.9372,4.9316,4.9289,4.9283,4.9241,4.9239,4.9204,4.9195,4.9171,4.9094,4.9087,0,0,0,4.9378,4.9359,4.9345,4.9323,4.9304,4.9286,4.9269,4.9259,4.9225,4.9263,4.9189,4.9184,4.9169,4.9159,4.9153,4.914,4.9217,4.9217,4.9217,4.9309,4.9308,4.9266,4.9259,4.9237,4.9221,4.9202,4.9186,4.9188,4.9171,4.9158,4.9112,4.9099,4.9095,4.9082,4.9147,4.9147,4.9147,4.9147,4.9238,4.9211,4.922,4.9182,4.9181,4.9148,4.9132,4.9135,4.9103,4.9121,4.9108,4.9126,4.9088,4.9076,4.9146,4.9146,4.9146,4.9146,4.9146,4.9192,4.9179,4.9171,4.914,4.9116,4.911,4.9081,4.908,4.9078,4.9066,4.9052,4.9052,4.9052,4.906,4.906,4.9059,4.9059,4.9059,4.9059,4.9147,4.9139,4.9115,4.9095,4.9082,4.9064,4.905,4.9036,4.902,4.9021,4.9021,4.9025,4.9085,4.91,4.9056,4.9057,4.9057,4.9058,4.9058,4.9073,4.9091,4.9055,4.9042,4.9019,4.8996,4.8997,4.8969,4.8957,4.8942,4.8951,4.8995,4.8998,4.9002,4.9014,4.8951,4.8952,4.8951,4.8951,4.9034,4.9037,4.9001,4.8981,4.8961,4.8959,4.8917,4.8907,4.8898,4.889,4.89,4.8916,4.8921,4.892,4.8927,4.8938,4.8857,4.8857,4.8857,4.8989,4.899,4.8955,4.8951,4.8934,4.8919,4.888,4.8854,4.8848,4.8853,4.8885,4.8889,4.8915,4.8924,4.8927,4.8937,4.8958,0,0]}]]